TimeEDT,TemperatureF,Dew PointF,Humidity,Sea Level PressureIn,VisibilityMPH,Wind Direction,Wind SpeedMPH,Gust SpeedMPH,PrecipitationIn,Events,Conditions,WindDirDegrees,DateUTC
12:15 AM,62.6,62.6,100,30.07,2.5,Calm,Calm,-,N/A,,Clear,0,2013-05-10 04:15:00
12:35 AM,60.8,60.8,100,30.08,2.0,Calm,Calm,-,N/A,,Clear,0,2013-05-10 04:35:00
12:55 AM,60.8,60.8,100,30.09,7.0,Calm,Calm,-,N/A,,Clear,0,2013-05-10 04:55:00
1:15 AM,60.8,60.8,100,30.08,10.0,Calm,Calm,-,N/A,,Clear,0,2013-05-10 05:15:00
1:35 AM,60.8,60.8,100,30.08,7.0,Calm,Calm,-,N/A,,Clear,0,2013-05-10 05:35:00
1:55 AM,60.8,60.8,100,30.08,5.0,Calm,Calm,-,N/A,,Clear,0,2013-05-10 05:55:00
2:15 AM,60.8,60.8,100,30.08,7.0,Calm,Calm,-,N/A,,Clear,0,2013-05-10 06:15:00
2:35 AM,60.8,60.8,100,30.07,4.0,Calm,Calm,-,N/A,,Clear,0,2013-05-10 06:35:00
2:55 AM,59.0,59.0,100,30.07,4.0,Calm,Calm,-,N/A,,Clear,0,2013-05-10 06:55:00
3:15 AM,59.0,59.0,100,30.06,4.0,Calm,Calm,-,N/A,,Clear,0,2013-05-10 07:15:00
3:35 AM,59.0,59.0,100,30.06,4.0,Calm,Calm,-,N/A,,Clear,0,2013-05-10 07:35:00
3:55 AM,59.0,59.0,100,30.06,2.5,Calm,Calm,-,N/A,,Clear,0,2013-05-10 07:55:00
4:15 AM,59.0,59.0,100,30.06,10.0,Calm,Calm,-,N/A,,Clear,0,2013-05-10 08:15:00
4:35 AM,59.0,59.0,100,30.06,10.0,Calm,Calm,-,N/A,,Clear,0,2013-05-10 08:35:00
4:55 AM,59.0,59.0,100,30.05,10.0,Calm,Calm,-,N/A,,Clear,0,2013-05-10 08:55:00
5:15 AM,57.2,57.2,100,30.05,7.0,Calm,Calm,-,N/A,,Clear,0,2013-05-10 09:15:00
5:35 AM,57.2,57.2,100,30.05,5.0,Calm,Calm,-,N/A,,Clear,0,2013-05-10 09:35:00
5:55 AM,57.2,57.2,100,30.05,4.0,Calm,Calm,-,N/A,,Clear,0,2013-05-10 09:55:00
6:15 AM,57.2,57.2,100,30.05,7.0,Calm,Calm,-,N/A,,Clear,0,2013-05-10 10:15:00
6:35 AM,55.4,55.4,100,30.05,7.0,Calm,Calm,-,N/A,,Clear,0,2013-05-10 10:35:00
6:55 AM,57.2,57.2,100,30.06,7.0,Calm,Calm,-,N/A,,Clear,0,2013-05-10 10:55:00
7:15 AM,59.0,59.0,100,30.06,7.0,Calm,Calm,-,N/A,,Clear,0,2013-05-10 11:15:00
7:35 AM,60.8,60.8,100,30.06,7.0,Calm,Calm,-,N/A,,Clear,0,2013-05-10 11:35:00
7:55 AM,62.6,62.6,100,30.06,10.0,Calm,Calm,-,N/A,,Clear,0,2013-05-10 11:55:00
8:15 AM,62.6,62.6,100,30.06,10.0,Calm,Calm,-,N/A,,Clear,0,2013-05-10 12:15:00
8:35 AM,64.4,62.6,94,30.07,10.0,Calm,Calm,-,N/A,,Clear,0,2013-05-10 12:35:00
8:55 AM,64.4,62.6,94,30.07,10.0,Calm,Calm,-,N/A,,Clear,0,2013-05-10 12:55:00
9:15 AM,68.0,64.4,88,30.08,10.0,Calm,Calm,-,N/A,,Clear,0,2013-05-10 13:15:00
9:35 AM,69.8,64.4,83,30.07,10.0,Calm,Calm,-,N/A,,Clear,0,2013-05-10 13:35:00
9:55 AM,69.8,62.6,78,30.07,10.0,SW,3.5,-,N/A,,Clear,220,2013-05-10 13:55:00
10:15 AM,71.6,62.6,73,30.07,10.0,SW,6.9,-,N/A,,Clear,230,2013-05-10 14:15:00
10:35 AM,73.4,64.4,73,30.07,10.0,WSW,4.6,-,N/A,,Clear,240,2013-05-10 14:35:00
10:55 AM,75.2,64.4,69,30.07,10.0,WSW,6.9,-,N/A,,Clear,240,2013-05-10 14:55:00
11:15 AM,77.0,64.4,65,30.07,10.0,South,4.6,-,N/A,,Clear,190,2013-05-10 15:15:00
11:35 AM,78.8,64.4,61,30.07,10.0,Calm,Calm,-,N/A,,Clear,0,2013-05-10 15:35:00
11:55 AM,78.8,62.6,57,30.07,10.0,SW,4.6,-,N/A,,Clear,230,2013-05-10 15:55:00
12:15 PM,80.6,62.6,54,30.07,10.0,WSW,9.2,-,N/A,,Scattered Clouds,240,2013-05-10 16:15:00
12:35 PM,80.6,59.0,48,30.07,10.0,SW,8.1,19.6,N/A,,Scattered Clouds,230,2013-05-10 16:35:00
12:55 PM,82.4,60.8,48,30.07,10.0,WSW,15.0,-,N/A,,Scattered Clouds,240,2013-05-10 16:55:00
1:15 PM,82.4,59.0,45,30.06,10.0,SW,6.9,17.3,N/A,,Scattered Clouds,230,2013-05-10 17:15:00
1:35 PM,80.6,59.0,48,30.05,10.0,West,12.7,17.3,N/A,,Scattered Clouds,260,2013-05-10 17:35:00
1:55 PM,82.4,59.0,45,30.05,10.0,SW,10.4,16.1,N/A,,Scattered Clouds,230,2013-05-10 17:55:00
2:15 PM,82.4,59.0,45,30.05,10.0,SW,8.1,-,N/A,,Mostly Cloudy,230,2013-05-10 18:15:00
2:55 PM,82.4,59.0,45,30.03,10.0,SW,10.4,-,N/A,,Scattered Clouds,220,2013-05-10 18:55:00
3:15 PM,82.4,59.0,45,30.02,10.0,SW,6.9,17.3,N/A,,Scattered Clouds,230,2013-05-10 19:15:00
3:35 PM,82.4,59.0,45,30.02,10.0,WSW,12.7,17.3,N/A,,Scattered Clouds,240,2013-05-10 19:35:00
3:55 PM,82.4,59.0,45,30.00,10.0,SW,8.1,19.6,N/A,,Clear,230,2013-05-10 19:55:00
4:15 PM,82.4,59.0,45,30.00,10.0,SSW,6.9,-,N/A,,Scattered Clouds,210,2013-05-10 20:15:00
4:35 PM,82.4,60.8,48,29.99,10.0,SW,9.2,-,N/A,,Scattered Clouds,230,2013-05-10 20:35:00
5:15 PM,80.6,60.8,51,29.99,10.0,SW,9.2,-,N/A,,Clear,220,2013-05-10 21:15:00
5:35 PM,80.6,59.0,48,29.99,10.0,SW,5.8,-,N/A,,Scattered Clouds,230,2013-05-10 21:35:00
5:55 PM,80.6,60.8,51,29.99,10.0,SW,8.1,-,N/A,,Scattered Clouds,230,2013-05-10 21:55:00
6:15 PM,78.8,60.8,54,29.99,10.0,WSW,11.5,17.3,N/A,,Scattered Clouds,250,2013-05-10 22:15:00
6:55 PM,71.6,64.4,78,29.99,10.0,SW,3.5,-,N/A,,Scattered Clouds,230,2013-05-10 22:55:00
7:15 PM,71.6,62.6,73,29.98,10.0,Calm,Calm,-,N/A,,Clear,0,2013-05-10 23:15:00
7:35 PM,71.6,62.6,73,29.98,10.0,Calm,Calm,-,N/A,,Clear,0,2013-05-10 23:35:00
7:55 PM,71.6,62.6,73,29.97,10.0,Calm,Calm,-,N/A,,Clear,0,2013-05-10 23:55:00
8:15 PM,71.6,62.6,73,29.98,10.0,Calm,Calm,-,N/A,,Clear,0,2013-05-11 00:15:00
8:35 PM,69.8,64.4,83,29.97,10.0,Calm,Calm,-,N/A,,Clear,0,2013-05-11 00:35:00
8:55 PM,68.0,64.4,88,29.97,10.0,Calm,Calm,-,N/A,,Clear,0,2013-05-11 00:55:00
9:15 PM,69.8,64.4,83,29.97,10.0,Calm,Calm,-,N/A,,Clear,0,2013-05-11 01:15:00
9:35 PM,68.0,64.4,88,29.98,10.0,SSW,3.5,-,N/A,,Clear,210,2013-05-11 01:35:00
9:55 PM,69.8,64.4,83,29.99,10.0,Calm,Calm,-,N/A,,Scattered Clouds,0,2013-05-11 01:55:00
10:15 PM,69.8,62.6,78,29.99,10.0,Calm,Calm,-,N/A,,Scattered Clouds,0,2013-05-11 02:15:00
10:35 PM,69.8,64.4,83,29.99,10.0,Calm,Calm,-,N/A,,Scattered Clouds,0,2013-05-11 02:35:00
10:55 PM,69.8,64.4,83,29.98,10.0,Calm,Calm,-,N/A,,Clear,0,2013-05-11 02:55:00
11:15 PM,68.0,64.4,88,29.98,10.0,Calm,Calm,-,N/A,,Mostly Cloudy,0,2013-05-11 03:15:00
11:35 PM,68.0,64.4,88,29.98,10.0,Calm,Calm,-,N/A,,Mostly Cloudy,0,2013-05-11 03:35:00
11:55 PM,68.0,64.4,88,29.98,10.0,Calm,Calm,-,N/A,,Mostly Cloudy,0,2013-05-11 03:55:00